Lapse_Rate
4.2 4.3 4.5 4.2 3.8 3.6 3.5 3.1 2.4 2.1 2.1 2.0 1.5 1.3 1.4 2.1 2.1 2.5 2.8 2.6 2.5 2.0 1.5 1.7 2.6 1.4 0.7 1.0 1.6 1.3 1.4 1.9
5.0 4.8 4.3 4.3 2.6 3.6 3.4 2.7 2.2 2.7 2.6 1.6 1.1 0.7 0.4 0.6 2.2 2.6 2.4 2.5 2.6 1.9 1.0 1.0 0.9 -0.2 -0.4 0.4 0.7 1.6 0.7 0.1
5.5 4.8 4.0 3.3 2.9 4.2 3.5 3.6 2.6 2.9 3.3 1.9 1.4 0.1 0.3 0.7 1.7 2.1 2.7 2.6 2.2 1.5 0.6 -0.3 -0.1 -0.8 -0.7 -0.4 0.1 0.7 0.3 0.3
4.9 4.5 4.1 3.5 3.8 3.2 3.3 3.6 2.9 2.8 2.4 1.1 -0.3 0.3 1.0 1.2 0.7 0.5 1.4 2.3 2.0 1.7 0.9 0.2 -0.3 -0.3 -0.5 -0.1 0.7 1.7 2.0 1.4
4.9 4.8 3.8 3.3 3.7 3.9 3.1 2.9 3.2 2.9 2.1 2.3 2.4 1.6 1.9 0.2 -0.2 -0.3 -0.1 1.4 1.7 1.5 1.1 0.6 0.0 -0.0 0.0 0.6 1.0 1.2 2.0 3.2
4.4 4.1 4.1 3.5 3.6 3.8 3.3 3.5 3.3 3.8 3.0 2.9 1.2 0.6 0.4 -1.4 -0.7 -0.4 -0.4 0.3 1.1 1.4 1.4 1.3 1.0 0.9 0.9 1.3 2.0 2.6 3.4 3.6
3.7 3.7 4.2 4.1 2.9 2.8 2.9 2.5 3.0 2.8 2.8 2.8 1.8 0.9 0.2 -0.3 -0.5 -0.7 -1.0 -0.9 -0.1 1.1 1.9 2.1 2.2 2.0 2.0 2.1 2.9 3.1 3.1 3.1
2.4 3.1 3.6 3.3 2.1 2.2 2.8 2.4 2.9 3.3 2.7 2.6 1.9 1.2 0.8 1.1 -0.4 -0.9 -0.6 -0.1 0.1 0.6 1.9 2.2 3.3 3.5 3.1 3.7 3.2 3.5 3.1 3.3
2.4 2.5 2.8 2.2 2.2 2.1 3.1 2.1 1.1 1.4 1.9 1.5 0.7 0.6 1.9 2.2 0.8 0.7 0.1 0.5 0.6 2.0 2.6 4.1 4.6 4.5 4.1 4.1 3.8 3.5 4.2 3.5
2.1 2.0 2.4 2.1 1.9 1.2 2.0 1.3 1.1 0.8 0.5 -0.1 0.5 0.8 1.7 1.2 0.4 0.9 -0.2 -0.1 1.1 1.7 3.7 3.4 4.3 4.6 4.2 3.9 4.0 4.1 3.9 3.7
1.7 1.7 2.2 1.8 1.8 1.2 0.1 0.6 0.8 -0.7 -1.3 -0.6 0.4 1.5 0.8 1.1 0.6 0.9 1.1 1.1 2.5 2.7 3.5 4.0 4.2 4.3 4.5 3.9 3.6 4.3 4.9 4.1
1.3 1.9 1.3 1.3 0.9 0.2 0.0 -0.3 -0.4 -0.6 -0.2 -0.3 0.4 0.3 0.4 0.8 1.0 1.5 2.0 2.3 3.0 3.8 3.8 4.0 4.4 4.5 3.9 3.7 4.6 4.9 4.9 4.2
0.9 1.4 0.4 0.2 0.1 -0.4 0.2 0.0 -0.6 -0.4 0.4 -0.3 0.0 1.1 1.1 1.2 2.0 2.1 2.0 2.8 3.4 4.0 4.1 4.7 5.0 4.8 4.5 4.3 4.5 4.9 4.2 3.8
0.9 -0.1 -0.4 0.2 0.1 0.2 0.6 -0.5 -0.7 0.3 0.5 0.5 1.2 1.4 1.6 1.8 2.1 2.1 2.4 3.0 3.0 3.9 4.4 5.1 5.4 5.5 4.9 4.3 4.4 4.2 3.6 3.7
0.5 0.5 0.1 0.3 0.7 0.8 0.5 -0.6 -0.8 -1.0 0.8 1.4 1.8 1.5 1.8 1.7 2.3 2.4 2.7 3.2 3.6 4.5 5.1 5.8 6.3 4.9 5.0 4.8 4.7 3.8 3.5 3.5
1.7 1.2 0.4 0.4 0.9 1.1 0.3 -0.7 -0.6 0.2 0.4 1.9 1.4 1.4 1.6 2.8 2.6 2.9 2.8 3.7 4.9 5.4 6.1 6.1 5.2 5.1 5.2 4.1 3.9 3.2 3.2 3.4
4.2 3.1 2.1 1.6 0.8 -0.4 -0.3 -0.2 0.8 1.5 1.8 1.7 1.4 1.8 3.0 2.4 2.2 3.0 3.9 5.3 6.2 6.6 6.6 5.7 4.5 5.3 4.6 3.9 3.4 2.9 3.1 3.1
2.0 1.7 2.0 1.3 0.5 -0.4 -0.4 -0.5 0.3 1.0 1.0 1.0 1.9 1.7 2.0 2.2 3.3 4.2 5.5 6.0 6.2 6.0 5.0 5.7 4.4 4.1 3.5 4.0 3.3 2.1 2.4 2.4
0.4 -0.4 -0.0 0.4 0.5 -0.1 -0.6 -0.6 0.0 -0.2 0.1 0.8 1.7 2.5 2.2 3.0 4.4 5.3 5.3 5.6 5.0 4.1 4.7 4.4 3.9 3.7 3.4 3.6 2.7 1.6 2.1 2.5
Wind_Speed
13 13 9 8 7 7 8 7 8 7 6 7 6 6 7 11 11 14 15 17 16 16 12 10 8 6 3 3 3 2 2 2
16 14 10 9 6 8 8 8 6 7 5 4 3 4 3 3 7 13 16 18 15 14 11 8 7 4 3 3 2 3 4 2
16 14 12 12 12 12 10 11 10 7 6 3 3 4 2 2 6 9 14 13 12 12 11 7 8 4 5 4 3 2 2 4
17 17 16 12 13 14 14 14 13 9 7 5 4 5 5 2 1 2 4 11 12 13 11 10 9 6 4 3 2 3 2 3
13 15 16 16 15 15 16 16 14 10 10 8 12 8 7 4 3 3 6 10 12 12 12 11 9 7 5 2 2 2 3 2
17 19 18 15 13 14 12 12 12 10 11 12 9 5 2 3 4 7 6 8 11 11 10 10 8 8 6 6 4 4 2 2
12 14 12 12 9 10 9 10 12 9 11 12 13 11 8 7 5 5 4 3 5 9 11 10 9 8 5 6 5 4 3 3
11 16 14 14 13 12 11 12 13 12 10 9 11 11 11 11 9 5 6 4 2 4 7 6 4 6 6 6 4 4 4 3
15 18 16 15 15 13 13 11 8 8 9 9 7 11 8 7 6 6 4 4 4 7 9 6 4 5 7 8 3 2 3 3
15 15 17 15 14 15 16 13 10 8 8 9 11 11 12 10 9 7 5 5 6 10 10 9 7 6 6 7 3 3 4 3
9 12 15 14 14 12 10 12 15 15 14 11 10 10 9 10 10 10 10 9 10 9 7 8 7 6 6 5 3 3 3 2
11 13 12 13 11 12 13 11 12 12 12 12 13 10 9 9 9 9 9 8 8 7 6 6 5 5 4 4 4 3 3 3
12 12 11 12 14 12 15 12 13 13 11 10 10 9 10 10 10 10 9 9 9 7 7 5 5 4 3 6 6 5 6 6
4 6 8 10 11 12 12 11 10 7 8 9 8 10 12 11 10 10 9 8 7 7 6 6 4 5 5 6 6 6 7 7
5 4 6 6 7 6 6 7 6 9 9 11 12 13 13 11 11 10 10 8 7 6 5 5 6 6 6 6 6 6 7 6
6 5 5 5 5 5 6 7 9 12 13 13 13 11 9 9 8 7 6 6 5 4 2 4 5 5 5 7 7 7 6 6
3 5 7 8 7 8 8 10 10 11 12 14 11 9 7 6 7 7 6 4 3 2 3 5 6 6 10 12 10 8 6 6
9 8 7 6 6 7 11 11 11 13 12 9 8 8 9 11 10 8 6 5 2 4 5 6 7 7 11 12 13 6 7 7
6 5 5 5 2 2 4 4 4 6 7 8 9 11 12 10 10 7 5 3 1 5 6 6 6 6 10 11 14 7 6 7
Wind_Direction
202 202 195 186 172 161 148 151 141 133 118 108 87 107 121 139 134 134 141 136 134 127 124 116 110 101 84 79 99 71 113 98
195 196 184 178 158 157 155 143 145 138 141 136 125 148 139 104 142 146 141 143 141 129 114 116 107 96 106 80 106 64 42 36
191 188 180 182 178 173 159 163 164 171 162 153 129 134 105 125 146 153 147 143 138 122 123 110 96 96 69 63 76 87 73 10
187 188 186 183 188 178 175 175 176 176 157 117 84 70 66 76 128 123 135 129 111 111 102 91 75 68 58 38 42 77 112 19
195 193 191 188 194 193 187 180 178 175 157 152 164 172 171 183 159 130 91 107 110 104 95 89 86 75 61 40 69 88 101 118
189 201 203 191 184 196 195 182 180 175 175 175 167 164 152 122 112 118 108 105 103 103 100 87 81 90 97 100 93 91 90 133
189 194 189 198 187 191 194 181 188 180 182 185 177 171 156 142 146 138 127 116 101 100 94 88 103 117 145 154 153 140 145 136
170 180 187 191 189 191 193 187 194 193 190 183 171 167 163 170 157 146 143 136 121 118 110 94 122 168 169 184 158 166 175 165
183 185 189 191 195 196 191 192 187 167 175 167 151 156 161 162 146 147 147 132 136 131 111 107 138 181 189 201 204 207 204 211
185 176 187 188 191 196 192 189 179 160 162 153 156 155 161 158 146 143 146 148 146 151 146 159 168 187 187 197 210 228 203 211
175 184 188 191 196 191 180 187 181 173 161 158 160 166 160 154 148 154 162 161 157 160 180 154 171 191 183 179 195 211 194 227
184 188 195 188 182 180 180 175 165 171 170 168 167 162 149 151 156 159 159 165 164 168 171 161 184 199 180 180 182 196 188 202
194 189 172 177 184 182 188 183 179 181 175 164 161 159 158 165 168 171 171 171 173 167 172 172 188 198 213 197 202 191 194 194
177 155 185 193 195 191 188 187 187 163 167 160 160 167 171 178 179 178 175 167 170 171 172 185 183 220 216 218 219 214 203 199
178 184 201 206 207 206 194 173 160 152 162 174 185 183 180 186 176 180 177 169 164 175 189 192 223 224 219 222 214 211 206 200
177 195 215 241 219 202 177 161 166 168 175 190 192 184 178 175 175 164 137 140 180 167 170 255 254 247 239 222 202 204 201 197
126 218 234 241 223 187 172 172 180 178 190 196 182 172 164 135 117 112 115 117 96 160 251 257 267 258 241 224 196 191 186 180
31 9 343 299 244 184 192 184 174 184 189 174 157 132 117 117 109 102 100 100 65 350 294 282 275 271 256 238 203 174 179 189
38 11 354 337 278 108 75 97 104 94 87 91 100 106 105 108 112 110 109 76 291 256 272 277 275 273 265 242 191 169 174 196